Location: Bergnerzell
(49.1816°N, 10.2565°E)
Time: 05:50:53
(UTC+00:00)

IDEFIX/ARIANE 42P - Pass Details

Date: 14 August 2024
Orbit: 782 x 799 km, 98.5° (Epoch: 08 September)

Event Time Altitude Azimuth Distance (km) Brightness Sun altitude
Rises 02:21:47 0° 6° (N) 3,284 6.6 -15.4°
Reaches altitude 10° 02:24:23 10° 355° (N) 2,353 5.6 -15.1°
Maximum altitude 02:28:43 28° 299° (WNW) 1,459 3.8 -14.6°
Enters shadow 02:31:28 18° 255° (WSW) 1,873 4.0 -14.3°
